IBB40M GCLP-GMML

Flight info

Callsign IBB40M
Flight time 0h 42m
Altitude 13000
Route COSTI DCT LAY
Aircraft AT76/M-SDFGIRY/S

Departure

Time 2026-04-25 21:10
Airport Gran Canaria Airport (GCLP)

Arrival

Time 2026-04-25 21:52
Airport Laayoune Hassan I International Airport (GMML)
Time Latitude Longitude Altitude Speed Heading
2026-04-25 20:45 27.92964 -15.39038 73 ft 0 kts 291°
2026-04-25 21:05 27.92967 -15.39052 72 ft 9 kts 278°
2026-04-25 21:05 27.92901 -15.39131 82 ft 20 kts 179°
2026-04-25 21:06 27.92826 -15.39025 80 ft 18 kts 155°
2026-04-25 21:06 27.92717 -15.39068 83 ft 16 kts 204°
2026-04-25 21:06 27.92613 -15.39122 89 ft 16 kts 205°
2026-04-25 21:06 27.92578 -15.39140 91 ft 16 kts 199°
2026-04-25 21:07 27.92389 -15.39204 93 ft 18 kts 204°
2026-04-25 21:07 27.92319 -15.39245 96 ft 17 kts 207°
2026-04-25 21:07 27.92199 -15.39298 98 ft 20 kts 201°
2026-04-25 21:07 27.92051 -15.39311 89 ft 23 kts 171°
2026-04-25 21:08 27.91918 -15.39235 84 ft 22 kts 85°
2026-04-25 21:08 27.91946 -15.39206 81 ft 1 kts 11°
2026-04-25 21:08 27.91965 -15.39200 81 ft 8 kts 20°
2026-04-25 21:08 27.91978 -15.39194 82 ft 0 kts 22°
2026-04-25 21:09 27.92175 -15.39105 72 ft 63 kts 21°
2026-04-25 21:09 27.92767 -15.38839 106 ft 113 kts 23°
2026-04-25 21:10 27.93495 -15.38489 655 ft 107 kts 20°
2026-04-25 21:10 27.94209 -15.38158 863 ft 131 kts 26°
2026-04-25 21:10 27.95010 -15.37830 1495 ft 103 kts 358°
2026-04-25 21:10 27.95821 -15.37709 1703 ft 126 kts
2026-04-25 21:11 27.96675 -15.37553 2162 ft 128 kts 11°
2026-04-25 21:11 27.97536 -15.37208 2420 ft 144 kts 22°
2026-04-25 21:11 27.98499 -15.36679 2376 ft 162 kts 24°
2026-04-25 21:11 27.99522 -15.36090 2575 ft 165 kts 23°
2026-04-25 21:12 28.00552 -15.35518 2989 ft 165 kts 22°
2026-04-25 21:12 28.01594 -15.34998 3421 ft 164 kts 20°
2026-04-25 21:12 28.02650 -15.34498 3817 ft 164 kts 23°
2026-04-25 21:12 28.03233 -15.33939 4009 ft 174 kts 55°
2026-04-25 21:13 28.03278 -15.32076 4536 ft 189 kts 102°
2026-04-25 21:13 28.02815 -15.30672 4944 ft 192 kts 109°
2026-04-25 21:13 28.02247 -15.29291 5314 ft 194 kts 112°
2026-04-25 21:13 28.01648 -15.27917 5691 ft 196 kts 113°
2026-04-25 21:14 28.01036 -15.26535 6071 ft 197 kts 112°
2026-04-25 21:14 28.00426 -15.25137 6439 ft 197 kts 112°
2026-04-25 21:14 27.99835 -15.23734 6776 ft 199 kts 111°
2026-04-25 21:14 27.99251 -15.22316 7117 ft 198 kts 112°
2026-04-25 21:15 27.98681 -15.20894 7462 ft 199 kts 111°
2026-04-25 21:15 27.98102 -15.19452 7761 ft 202 kts 111°
2026-04-25 21:15 27.97526 -15.18003 8072 ft 205 kts 111°
2026-04-25 21:15 27.96933 -15.16523 8387 ft 205 kts 112°
2026-04-25 21:16 27.96333 -15.15045 8705 ft 206 kts 112°
2026-04-25 21:16 27.95733 -15.13587 8981 ft 210 kts 113°
2026-04-25 21:16 27.95120 -15.12101 9297 ft 209 kts 113°
2026-04-25 21:16 27.94517 -15.10615 9634 ft 209 kts 113°
2026-04-25 21:17 27.93895 -15.09104 9891 ft 211 kts 114°
2026-04-25 21:17 27.93281 -15.07596 10166 ft 213 kts 113°
2026-04-25 21:17 27.92652 -15.06056 10379 ft 217 kts 113°
2026-04-25 21:17 27.92022 -15.04524 10688 ft 213 kts 113°
2026-04-25 21:18 27.91389 -15.02986 10889 ft 216 kts 114°
2026-04-25 21:18 27.90761 -15.01452 11178 ft 215 kts 114°
2026-04-25 21:18 27.90132 -14.99912 11408 ft 218 kts 113°
2026-04-25 21:18 27.89491 -14.98355 11673 ft 217 kts 113°
2026-04-25 21:19 27.88848 -14.96789 11896 ft 220 kts 112°
2026-04-25 21:19 27.88201 -14.95210 12118 ft 222 kts 113°
2026-04-25 21:19 27.87567 -14.93659 12401 ft 221 kts 112°
2026-04-25 21:19 27.86899 -14.92055 12634 ft 222 kts 114°
2026-04-25 21:20 27.86249 -14.90498 12888 ft 223 kts 113°
2026-04-25 21:20 27.85796 -14.89421 12964 ft 228 kts 113°
2026-04-25 21:20 27.84874 -14.87222 13027 ft 239 kts 113°
2026-04-25 21:20 27.84150 -14.85488 13055 ft 248 kts 114°
2026-04-25 21:21 27.83406 -14.83696 13063 ft 255 kts 114°
2026-04-25 21:21 27.82643 -14.81852 13070 ft 261 kts 114°
2026-04-25 21:21 27.81875 -14.79974 13074 ft 265 kts 114°
2026-04-25 21:21 27.81090 -14.78081 13074 ft 268 kts 113°
2026-04-25 21:22 27.80302 -14.76167 13073 ft 270 kts 113°
2026-04-25 21:22 27.79506 -14.74240 13072 ft 272 kts 113°
2026-04-25 21:22 27.78702 -14.72298 13075 ft 273 kts 114°
2026-04-25 21:22 27.77898 -14.70349 13075 ft 274 kts 114°
2026-04-25 21:23 27.77091 -14.68397 13072 ft 275 kts 114°
2026-04-25 21:23 27.76284 -14.66449 13072 ft 275 kts 113°
2026-04-25 21:23 27.75474 -14.64488 13064 ft 275 kts 113°
2026-04-25 21:23 27.74663 -14.62536 13066 ft 276 kts 113°
2026-04-25 21:24 27.73851 -14.60566 13070 ft 276 kts 114°
2026-04-25 21:24 27.73047 -14.58596 13067 ft 276 kts 112°
2026-04-25 21:24 27.72247 -14.56625 13069 ft 276 kts 113°
2026-04-25 21:24 27.71449 -14.54656 13066 ft 276 kts 113°
2026-04-25 21:25 27.70638 -14.52690 13067 ft 276 kts 113°
2026-04-25 21:25 27.69822 -14.50722 13067 ft 277 kts 113°
2026-04-25 21:25 27.69005 -14.48750 13063 ft 277 kts 114°
2026-04-25 21:25 27.68195 -14.46808 13066 ft 277 kts 114°
2026-04-25 21:26 27.67377 -14.44839 13067 ft 277 kts 114°
2026-04-25 21:26 27.66556 -14.42877 13063 ft 277 kts 114°
2026-04-25 21:26 27.65730 -14.40915 13064 ft 277 kts 114°
2026-04-25 21:26 27.64897 -14.38954 13064 ft 278 kts 114°
2026-04-25 21:27 27.64070 -14.36984 13068 ft 278 kts 114°
2026-04-25 21:27 27.63249 -14.35013 13064 ft 278 kts 114°
2026-04-25 21:27 27.62432 -14.33045 13063 ft 277 kts 114°
2026-04-25 21:27 27.61613 -14.31079 13061 ft 277 kts 114°
2026-04-25 21:28 27.60794 -14.29114 13062 ft 277 kts 114°
2026-04-25 21:28 27.59971 -14.27149 13063 ft 278 kts 114°
2026-04-25 21:28 27.59148 -14.25178 13066 ft 277 kts 114°
2026-04-25 21:28 27.58323 -14.23202 13063 ft 278 kts 114°
2026-04-25 21:29 27.57503 -14.21240 13065 ft 277 kts 114°
2026-04-25 21:29 27.56682 -14.19282 13059 ft 276 kts 114°
2026-04-25 21:29 27.55860 -14.17325 13058 ft 276 kts 114°
2026-04-25 21:29 27.55042 -14.15381 13058 ft 275 kts 114°
2026-04-25 21:30 27.54225 -14.13431 13062 ft 275 kts 114°
2026-04-25 21:30 27.53409 -14.11481 13062 ft 275 kts 114°
2026-04-25 21:30 27.52593 -14.09534 13062 ft 275 kts 114°
2026-04-25 21:30 27.52052 -14.08243 13061 ft 275 kts 114°
2026-04-25 21:31 27.50968 -14.05666 13058 ft 274 kts 114°
2026-04-25 21:31 27.50139 -14.03698 13058 ft 275 kts 114°
2026-04-25 21:31 27.49334 -14.01780 13060 ft 274 kts 114°
2026-04-25 21:31 27.48514 -13.99828 13059 ft 275 kts 114°
2026-04-25 21:32 27.47697 -13.97885 13057 ft 274 kts 114°
2026-04-25 21:32 27.46879 -13.95944 13057 ft 275 kts 114°
2026-04-25 21:32 27.46060 -13.94001 13055 ft 275 kts 114°
2026-04-25 21:32 27.45240 -13.92056 13051 ft 275 kts 114°
2026-04-25 21:33 27.44420 -13.90112 13052 ft 275 kts 114°
2026-04-25 21:33 27.43601 -13.88167 13050 ft 275 kts 114°
2026-04-25 21:33 27.42780 -13.86219 13050 ft 275 kts 114°
2026-04-25 21:33 27.41961 -13.84276 13053 ft 275 kts 115°
2026-04-25 21:34 27.41138 -13.82331 13049 ft 275 kts 114°
2026-04-25 21:34 27.40313 -13.80382 13048 ft 276 kts 115°
2026-04-25 21:34 27.39489 -13.78432 13039 ft 276 kts 115°
2026-04-25 21:34 27.38663 -13.76482 13039 ft 276 kts 115°
2026-04-25 21:35 27.37850 -13.74559 13038 ft 276 kts 115°
2026-04-25 21:35 27.37025 -13.72614 13037 ft 275 kts 114°
2026-04-25 21:35 27.36201 -13.70671 13037 ft 275 kts 114°
2026-04-25 21:35 27.35358 -13.68706 13038 ft 275 kts 115°
2026-04-25 21:36 27.34512 -13.66777 13037 ft 276 kts 115°
2026-04-25 21:36 27.33697 -13.64860 13037 ft 275 kts 114°
2026-04-25 21:36 27.32842 -13.62936 13031 ft 275 kts 117°
2026-04-25 21:36 27.31945 -13.61034 13030 ft 275 kts 117°
2026-04-25 21:37 27.31047 -13.59128 13031 ft 275 kts 117°
2026-04-25 21:37 27.30452 -13.57835 12892 ft 280 kts 116°
2026-04-25 21:37 27.29271 -13.55203 12627 ft 288 kts 116°
2026-04-25 21:37 27.28345 -13.53139 12162 ft 301 kts 116°
2026-04-25 21:38 27.27398 -13.51021 11796 ft 306 kts 116°
2026-04-25 21:38 27.26432 -13.48869 11371 ft 312 kts 116°
2026-04-25 21:38 27.25456 -13.46696 11011 ft 306 kts 116°
2026-04-25 21:38 27.24520 -13.44611 10655 ft 293 kts 116°
2026-04-25 21:39 27.23610 -13.42579 10160 ft 290 kts 116°
2026-04-25 21:39 27.22708 -13.40570 9621 ft 287 kts 116°
2026-04-25 21:39 27.21812 -13.38576 9051 ft 284 kts 116°
2026-04-25 21:39 27.20928 -13.36611 8499 ft 280 kts 115°
2026-04-25 21:40 27.20054 -13.34661 7955 ft 278 kts 115°
2026-04-25 21:40 27.19186 -13.32729 7421 ft 277 kts 115°
2026-04-25 21:40 27.18324 -13.30804 6895 ft 275 kts 114°
2026-04-25 21:40 27.17466 -13.28898 6380 ft 272 kts 115°
2026-04-25 21:41 27.16617 -13.27010 5821 ft 269 kts 114°
2026-04-25 21:41 27.15772 -13.25143 5274 ft 267 kts 114°
2026-04-25 21:41 27.14800 -13.23399 4695 ft 266 kts 132°
2026-04-25 21:41 27.13246 -13.22423 4174 ft 250 kts 166°
2026-04-25 21:42 27.11571 -13.22540 3795 ft 242 kts 202°
2026-04-25 21:42 27.10249 -13.23622 3421 ft 232 kts 237°
2026-04-25 21:42 27.09355 -13.25074 3045 ft 229 kts 241°
2026-04-25 21:42 27.08333 -13.26434 2672 ft 232 kts 219°
2026-04-25 21:43 27.06961 -13.27388 2322 ft 232 kts 214°
2026-04-25 21:43 27.05588 -13.28304 2130 ft 225 kts 212°
2026-04-25 21:43 27.04275 -13.29188 2054 ft 215 kts 212°
2026-04-25 21:43 27.03016 -13.30036 2029 ft 207 kts 212°
2026-04-25 21:44 27.01794 -13.30854 2022 ft 202 kts 213°
2026-04-25 21:44 27.00644 -13.31608 2005 ft 181 kts 213°
2026-04-25 21:44 26.98579 -13.32363 1959 ft 139 kts 147°
2026-04-25 21:45 26.98085 -13.31657 1961 ft 103 kts 78°
2026-04-25 21:45 26.98131 -13.31406 1956 ft 93 kts 54°
2026-04-25 21:45 26.98756 -13.30508 2077 ft 86 kts 37°
2026-04-25 21:45 26.99205 -13.29950 1925 ft 113 kts 42°
2026-04-25 21:46 26.99642 -13.29255 1873 ft 110 kts 56°
2026-04-25 21:46 26.99973 -13.28522 1914 ft 100 kts 50°
2026-04-25 21:46 27.00389 -13.27913 1909 ft 93 kts 34°
2026-04-25 21:46 27.00898 -13.27569 1931 ft 85 kts 26°
2026-04-25 21:47 27.01402 -13.27361 1806 ft 73 kts 20°
2026-04-25 21:47 27.01896 -13.27157 1597 ft 81 kts 19°
2026-04-25 21:47 27.02436 -13.26999 1651 ft 82 kts 17°
2026-04-25 21:47 27.02996 -13.26856 1760 ft 83 kts 18°
2026-04-25 21:48 27.03565 -13.26676 1867 ft 86 kts 15°
2026-04-25 21:48 27.04140 -13.26476 2016 ft 83 kts 18°
2026-04-25 21:48 27.04706 -13.26270 2022 ft 89 kts 17°
2026-04-25 21:48 27.05306 -13.26032 1967 ft 91 kts 17°
2026-04-25 21:49 27.05922 -13.25859 1809 ft 92 kts 12°
2026-04-25 21:49 27.06551 -13.25683 1597 ft 95 kts 16°
2026-04-25 21:49 27.07188 -13.25493 1369 ft 94 kts 15°
2026-04-25 21:49 27.07792 -13.25300 1267 ft 85 kts 14°
2026-04-25 21:50 27.08369 -13.25101 1074 ft 90 kts 17°
2026-04-25 21:50 27.09006 -13.24895 922 ft 96 kts 17°
2026-04-25 21:50 27.09626 -13.24681 810 ft 91 kts 17°
2026-04-25 21:50 27.10024 -13.24554 801 ft 88 kts 18°
2026-04-25 21:51 27.10833 -13.24280 693 ft 94 kts 20°
2026-04-25 21:51 27.11460 -13.24082 569 ft 94 kts 19°
2026-04-25 21:51 27.12077 -13.23851 411 ft 92 kts 16°
2026-04-25 21:51 27.12696 -13.23651 295 ft 93 kts 17°
2026-04-25 21:52 27.13284 -13.23455 223 ft 80 kts 18°
2026-04-25 21:52 27.13717 -13.23302 226 ft 38 kts 16°
2026-04-25 21:52 27.13976 -13.23215 221 ft 54 kts 14°
2026-04-25 21:52 27.14337 -13.23101 219 ft 48 kts 16°
2026-04-25 21:53 27.14614 -13.23011 219 ft 35 kts 18°
2026-04-25 21:53 27.14811 -13.22943 221 ft 25 kts 18°
2026-04-25 21:53 27.14942 -13.22891 222 ft 15 kts 45°
2026-04-25 21:53 27.14949 -13.22830 222 ft 12 kts 104°
2026-04-25 21:54 27.14937 -13.22785 221 ft 0 kts 107°
2026-04-25 21:55 27.14937 -13.22784 221 ft 1 kts 107°
2026-04-25 21:55 27.14929 -13.22755 221 ft 6 kts 107°
2026-04-25 21:55 27.14915 -13.22700 221 ft 9 kts 107°
2026-04-25 21:55 27.14896 -13.22629 221 ft 10 kts 106°
2026-04-25 21:56 27.14875 -13.22548 221 ft 12 kts 107°
2026-04-25 21:56 27.14849 -13.22450 221 ft 14 kts 106°
2026-04-25 21:56 27.14818 -13.22335 221 ft 16 kts 107°
2026-04-25 21:56 27.14784 -13.22206 221 ft 18 kts 106°
2026-04-25 21:57 27.14777 -13.22064 221 ft 19 kts 79°
2026-04-25 21:57 27.14836 -13.21938 221 ft 18 kts 44°
2026-04-25 21:57 27.14938 -13.21857 221 ft 18 kts 32°
2026-04-25 21:57 27.15043 -13.21786 221 ft 17 kts 31°
2026-04-25 21:58 27.15144 -13.21715 220 ft 17 kts 31°
2026-04-25 21:58 27.15239 -13.21665 221 ft 10 kts 345°
2026-04-25 21:58 27.15283 -13.21713 220 ft 7 kts 321°
2026-04-25 21:58 27.15301 -13.21728 220 ft 4 kts 314°
2026-04-25 21:59 27.15323 -13.21766 220 ft 4 kts 306°
2026-04-25 21:59 27.15327 -13.21773 220 ft 1 kts 307°
2026-04-25 21:59 27.15328 -13.21774 220 ft 0 kts 307°